Weather History for Montgomery, NY

Change the Weather History Date:

Friday, September 20, 2013

  Actual Average (KPOU) Record (KPOU)
Temperature  
Mean Temperature 62 °F 61 °F  
Max Temperature 79 °F 74 °F 92 °F (1983)
Min Temperature 46 °F 49 °F 34 °F (1979)
Degree Days  
Heating Degree Days 2 5  
Month to date heating degree days 56  
Since 1 July heating degree days 73  
Cooling Degree Days 0 0  
Month to date cooling degree days 56  
Year to date cooling degree days 660  
Growing Degree Days 12 (Base 50)    
Moisture  
Dew Point 52 °F    
Average Humidity 79    
Maximum Humidity 97    
Minimum Humidity 43    
Precipitation  
Precipitation 0.01 in 0.14 in 1.16 in (1963)
Month to date precipitation 2.78  
Year to date precipitation 33.56  
Sea Level Pressure  
Sea Level Pressure 30.04 in    
Wind  
Wind Speed 2 mph (SSW)    
Max Wind Speed 9 mph    
Max Gust Speed -    
Visibility 9 miles    
Events      
T = Trace of Precipitation, MM = Missing Value Source: NWS Daily Summary

Daily Weather History Graph

Daily Weather History Graph

Search for Another Location

Airport:

Trip Planner

Search our weather history database for the weather conditions in past years. The results will help you decide how hot, cold, wet, or windy it might be!

Date:

Astronomy

Sep. 20, 2013 Rise Set
Actual Time 6:42 AM EDT 6:57 PM EDT
Civil Twilight 6:14 AM EDT 7:24 PM EDT
Nautical Twilight 5:42 AM EDT 7:57 PM EDT
Astronomical Twilight 5:09 AM EDT 8:30 PM EDT
Moon 7:27 PM EDT (9/20) 7:56 AM EDT (9/20)
Length of Visible Light 13h 10m
Length of Day
12h 14m
Full, 98% of the Moon is Illuminated
Sep 20
Full
Sep 26
Last Quarter
Oct 4
New
Oct 11
First Quarter
Oct 18
Full

Hourly Weather History & Observations

Time (EDT) Temp. Dew Point Humidity Pressure Visibility Wind Dir Wind Speed Gust Speed Precip Events Conditions
12:54 AM 50.0 °F 48.0 °F 93% 30.07 in 10.0 mi Calm Calm - N/A   Clear
1:54 AM 46.9 °F 46.0 °F 97% 30.08 in 10.0 mi SSW 3.5 mph - 0.00 in   Clear
2:54 AM 46.9 °F 45.0 °F 93% 30.08 in 10.0 mi SW 4.6 mph - N/A   Clear
3:54 AM 48.0 °F 46.9 °F 96% 30.08 in 8.0 mi SSW 4.6 mph - N/A   Clear
4:54 AM 46.9 °F 46.0 °F 97% 30.07 in 10.0 mi SSW 3.5 mph - N/A   Clear
5:54 AM 46.9 °F 46.0 °F 97% 30.07 in 10.0 mi Calm Calm - N/A   Clear
6:52 AM 46.4 °F 44.6 °F 93% 30.09 in 1.8 mi Calm Calm - 0.01 in   Partly Cloudy
6:54 AM 46.0 °F 44.1 °F 93% 30.09 in 1.8 mi Calm Calm - 0.01 in   Scattered Clouds
7:02 AM 46.4 °F 44.6 °F 93% 30.09 in 4.0 mi North - - N/A   Scattered Clouds
7:54 AM 50.0 °F 48.9 °F 96% 30.09 in 10.0 mi North - - N/A   Clear
8:54 AM 57.0 °F 53.1 °F 87% 30.09 in 10.0 mi SSW 3.5 mph - N/A   Clear
9:54 AM 64.0 °F 55.9 °F 75% 30.09 in 10.0 mi SSW 3.5 mph - N/A   Clear
10:54 AM 69.1 °F 57.0 °F 65% 30.09 in 10.0 mi Calm Calm - N/A   Clear
11:54 AM 73.0 °F 57.9 °F 59% 30.06 in 10.0 mi Calm Calm - N/A   Clear
12:54 PM 75.0 °F 57.0 °F 53% 30.04 in 10.0 mi Calm Calm - N/A   Clear
1:54 PM 77.0 °F 57.0 °F 50% 30.02 in 10.0 mi SW 5.8 mph - N/A   Clear
2:54 PM 78.1 °F 54.0 °F 43% 30.00 in 10.0 mi SW 5.8 mph - N/A   Clear
3:54 PM 79.0 °F 57.0 °F 47% 29.99 in 10.0 mi SSE 9.2 mph - N/A   Partly Cloudy
4:54 PM 78.1 °F 57.0 °F 48% 29.98 in 10.0 mi South 8.1 mph - N/A   Partly Cloudy
5:54 PM 75.0 °F 55.0 °F 50% 29.99 in 10.0 mi South 6.9 mph - N/A   Clear
6:54 PM 66.0 °F 60.1 °F 81% 29.97 in 10.0 mi Calm Calm - N/A   Clear
7:54 PM 61.0 °F 57.0 °F 87% 29.99 in 10.0 mi Calm Calm - N/A   Clear
8:54 PM 57.9 °F 55.0 °F 90% 29.99 in 10.0 mi Calm Calm - N/A   Clear
9:54 PM 57.0 °F 54.0 °F 89% 29.99 in 10.0 mi Calm Calm - N/A   Clear
10:54 PM 55.0 °F 53.1 °F 93% 29.99 in 8.0 mi Calm Calm - N/A   Clear
11:54 PM 54.0 °F 52.0 °F 93% 30.00 in 8.0 mi Calm Calm - N/A   Clear